Tracking 19170 objects as of 23-May-2018
HD Live streaming from Space Station
objects crossing your sky now

NOAA 16 DEB

Track NOAA 16 DEB now!
10-day predictions


NORAD ID: 42347
Int'l Code: 2000-055QP
Perigee: 787.6 km
Apogee: 867.9 km
Inclination: 98.9 °
Period: 101.3 minutes
Semi major axis: 7198 km
RCS: Unknown
Launch date: September 21, 2000
Source: United States (US)
Launch site: AIR FORCE WESTERN TEST RANGE (AFWTR)

Note: This is SATELLITE DEBRIS
aabbcc
Your satellite tracking list
Your tracking list is empty




NASA's NSSDC Master Catalog

Two Line Element Set (TLE):
1 42347U 00055QP  18143.01188075  .00000716  00000-0  34269-3 0  9998
2 42347  98.8772 230.8113 0055803  60.0186 300.6513 14.21410995121359
Source of the keplerian elements: AFSPC